Holbrook, NY

5:37 PM EST on February 26, 2017 (GMT -0500)
Long Island Mac Arthur

Weather History for KISP - June, 2012

Change the Weather History Date:

Tuesday, June 12, 2012

  Actual Average Record
Temperature  
Mean Temperature 68 °F 68 °F  
Max Temperature 72 °F 76 °F 88 °F (1988)
Min Temperature 63 °F 59 °F 50 °F (2004)
Degree Days  
Heating Degree Days 0 1  
Month to date heating degree days 17 27  
Since 1 June heating degree days 17 27  
Since 1 July heating degree days 4202 5417  
Cooling Degree Days 3 4  
Month to date cooling degree days 29 35  
Year to date cooling degree days 91 59  
Since 1 June cooling degree days 29 35  
Growing Degree Days 16 (Base 50)    
Moisture  
Dew Point 61 °F    
Average Humidity 84    
Maximum Humidity 100    
Minimum Humidity 68    
Precipitation  
Precipitation 0.57 in 0.16 in 3.45 in (1998)
Month to date precipitation 1.97 1.96  
Year to date precipitation 14.49 21.42  
Snow  
Snow 0.00 in 0.00 in - ()
Month to date snowfall 0.0 0.0  
Since 1 July snowfall 4.7 24.8  
Snow Depth 0.00 in    
Sea Level Pressure  
Sea Level Pressure 30.05 in    
Wind  
Wind Speed 11 mph (SSE)    
Max Wind Speed 20 mph    
Max Gust Speed 25 mph    
Visibility 7 miles    
Events Rain    
T = Trace of Precipitation, MM = Missing Value Source: NWS Daily Summary

Daily Weather History Graph

Daily Weather History Graph

Search for Another Location

Airport or City:

Trip Planner

Search our weather history database for the weather conditions in past years. The results will help you decide how hot, cold, wet, or windy it might be!

Date:

Astronomy

Jun. 12, 2012 Rise Set
Actual Time 5:20 AM EDT 8:24 PM EDT
Civil Twilight 4:47 AM EDT 8:57 PM EDT
Nautical Twilight 4:04 AM EDT 9:40 PM EDT
Astronomical Twilight 3:14 AM EDT 10:30 PM EDT
Moon 1:07 AM EDT (6/12) 2:08 PM EDT (6/12)
Length of Visible Light 16h 10m
Length of Day
15h 04m
Last Quarter, 38% of the Moon is Illuminated
Jun 12
Last Quarter
Jun 19
New
Jun 26
First Quarter
Jul 3
Full
Jul 10
Last Quarter

Hourly Weather History & Observations

Time (EDT) Temp. Dew Point Humidity Pressure Visibility Wind Dir Wind Speed Gust Speed Precip Events Conditions
12:56 AM 63.0 °F 59.0 °F 87% 30.18 in 10.0 mi SSE 5.8 mph - N/A   Scattered Clouds
1:56 AM 63.0 °F 59.0 °F 87% 30.17 in 10.0 mi SE 6.9 mph - N/A   Mostly Cloudy
2:46 AM 62.6 °F 59.0 °F 88% 30.16 in 10.0 mi SE 6.9 mph - N/A   Overcast
2:56 AM 63.0 °F 59.0 °F 87% 30.16 in 10.0 mi SE 6.9 mph - N/A   Mostly Cloudy
3:56 AM 63.0 °F 57.9 °F 84% 30.13 in 10.0 mi SE 6.9 mph - N/A   Mostly Cloudy
4:56 AM 64.0 °F 59.0 °F 84% 30.13 in 10.0 mi SSE 6.9 mph - N/A   Mostly Cloudy
5:56 AM 64.0 °F 60.1 °F 87% 30.13 in 10.0 mi SSE 9.2 mph - N/A   Overcast
6:56 AM 66.0 °F 60.1 °F 81% 30.12 in 10.0 mi SE 10.4 mph - N/A   Overcast
7:56 AM 66.9 °F 60.1 °F 79% 30.12 in 10.0 mi SSE 10.4 mph - N/A   Overcast
8:56 AM 68.0 °F 60.1 °F 76% 30.11 in 10.0 mi SSE 17.3 mph 23.0 mph N/A   Overcast
9:56 AM 69.1 °F 61.0 °F 75% 30.09 in 10.0 mi SSE 12.7 mph - N/A   Overcast
10:56 AM 71.1 °F 61.0 °F 70% 30.08 in 10.0 mi SSE 15.0 mph 21.9 mph N/A   Overcast
11:56 AM 70.0 °F 61.0 °F 73% 30.07 in 10.0 mi South 15.0 mph 21.9 mph N/A   Overcast
12:56 PM 69.1 °F 61.0 °F 75% 30.07 in 10.0 mi South 16.1 mph - N/A   Overcast
1:56 PM 68.0 °F 61.0 °F 78% 30.05 in 10.0 mi SSE 12.7 mph - N/A   Overcast
2:56 PM 66.0 °F 63.0 °F 90% 30.04 in 6.0 mi South 9.2 mph - 0.04 in Rain Light Rain
3:56 PM 66.0 °F 63.0 °F 90% 30.01 in 7.0 mi SSE 10.4 mph - 0.06 in Rain Light Rain
4:56 PM 66.9 °F 63.0 °F 87% 30.00 in 9.0 mi South 10.4 mph - 0.02 in Rain Light Rain
5:23 PM 66.2 °F 62.6 °F 88% 29.99 in 6.0 mi SSE 10.4 mph - 0.02 in Rain Light Rain
5:56 PM 66.0 °F 63.0 °F 90% 29.98 in 4.0 mi South 8.1 mph - 0.05 in Rain Light Rain
6:35 PM 66.2 °F 62.6 °F 88% 29.97 in 2.5 mi SSE 11.5 mph - 0.06 in Rain Light Rain
6:56 PM 66.0 °F 63.0 °F 90% 29.96 in 2.5 mi SSE 11.5 mph - 0.09 in Rain Light Rain
7:35 PM 64.4 °F 62.6 °F 94% 29.96 in 2.5 mi SSE 11.5 mph - 0.04 in Rain Light Rain
7:56 PM 64.9 °F 63.0 °F 93% 29.96 in 2.5 mi SSE 10.4 mph - 0.07 in Rain Light Rain
8:56 PM 64.9 °F 63.0 °F 93% 29.95 in 2.5 mi SSE 10.4 mph - 0.03 in Rain Light Rain
9:56 PM 64.9 °F 63.0 °F 93% 29.95 in 3.0 mi South 9.2 mph - 0.03 in Rain Light Rain
10:56 PM 64.9 °F 64.0 °F 97% 29.94 in 3.0 mi SSE 12.7 mph 21.9 mph 0.04 in Rain Light Rain
11:47 PM 66.2 °F 64.4 °F 94% 29.93 in 2.0 mi SSE 13.8 mph 20.7 mph 0.07 in Rain Light Rain
11:56 PM 66.0 °F 64.0 °F 93% 29.92 in 2.0 mi South 16.1 mph 25.3 mph 0.07 in Rain Light Rain